This demonstration page uses our WeatherBlox Daily Observations layout. Learn more.

Hourly Observations for May 8, 2019

Temp ( °F °C ) Dew Point ( °F °C ) Humidity (%) Winds ( mph kmh ) Pressure ( in mb ) Visibility ( mi km ) Precip ( " mm )
12:15 am 00:15 Clear 68 20 63 17 83 83 S 5 7 30.12 1020 10 16.09344 0 0
12:35 am 00:35 Clear 68 20 63 17 83 83 Calm 30.12 1020 10 16.09344 0 0
12:55 am 00:55 Clear 64 18 63 17 94 94 Calm 30.12 1020 10 16.09344 0 0
1:15 am 01:15 Clear 66 19 63 17 88 88 S 3 6 30.12 1020 10 16.09344 0 0
1:35 am 01:35 Clear 63 17 61 16 94 94 Calm 30.12 1020 10 16.09344 0 0
1:55 am 01:55 Clear 61 16 61 16 100 100 Calm 30.12 1020 10 16.09344 0 0
2:15 am 02:15 Clear 63 17 61 16 94 94 Calm 30.12 1020 10 16.09344 0 0
2:35 am 02:35 Clear 63 17 61 16 94 94 Calm 30.12 1020 10 16.09344 0 0
2:55 am 02:55 Clear 63 17 61 16 94 94 Calm 30.12 1020 10 16.09344 0 0
3:15 am 03:15 Partly Cloudy 63 17 61 16 94 94 NNE 8 13 30.12 1020 10 16.09344 0 0
3:35 am 03:35 Partly Cloudy 63 17 61 16 94 94 NNE 7 11 30.12 1020 10 16.09344 0 0
3:55 am 03:55 Clear 61 16 61 16 100 100 NE 7 11 30.12 1020 10 16.09344 0 0
4:15 am 04:15 Clear 61 16 59 15 94 94 NNE 6 9 30.12 1020 10 16.09344 0 0
4:35 am 04:35 Clear 61 16 59 15 94 94 NE 6 9 30.12 1020 10 16.09344 0 0
4:55 am 04:55 Clear 61 16 59 15 94 94 NNE 5 7 30.12 1020 10 16.09344 0 0
5:15 am 05:15 Clear 61 16 59 15 94 94 NNE 10 17 30.12 1020 10 16.09344 0 0
5:35 am 05:35 Clear 61 16 59 15 94 94 NNE 5 7 30.15 1021 10 16.09344 0 0
5:55 am 05:55 Clear 61 16 59 15 94 94 NNE 9 15 30.15 1021 10 16.09344 0 0
6:15 am 06:15 Mostly Cloudy 61 16 59 15 94 94 NE 10 17 30.15 1021 10 16.09344 0 0
6:35 am 06:35 Cloudy 61 16 59 15 94 94 NE 9 15 30.15 1021 10 16.09344 0 0
6:55 am 06:55 Cloudy 61 16 59 15 94 94 NNE 8 13 30.18 1022 10 16.09344 0 0
7:15 am 07:15 Cloudy 61 16 59 15 94 94 NNE 8 13 30.18 1022 10 16.09344 0 0
7:35 am 07:35 Cloudy 61 16 59 15 94 94 NNE 8 13 30.18 1022 10 16.09344 0 0
7:55 am 07:55 Cloudy 63 17 59 15 88 88 NNE 9 15 30.18 1022 10 16.09344 0 0
8:15 am 08:15 Cloudy 61 16 59 15 94 94 NNE 8 13 30.18 1022 10 16.09344 0 0
8:35 am 08:35 Cloudy 63 17 59 15 88 88 NNE 6 9 30.18 1022 10 16.09344 0 0
8:55 am 08:55 Cloudy 63 17 57 14 83 83 NNE 8 13 30.21 1023 10 16.09344 0 0
9:15 am 09:15 Cloudy 63 17 59 15 88 88 NNE 7 11 30.21 1023 10 16.09344 0 0
9:35 am 09:35 Cloudy 63 17 59 15 88 88 NE 9 15 30.21 1023 10 16.09344 0 0
9:55 am 09:55 Cloudy 63 17 57 14 83 83 NNE 8 13 30.21 1023 10 16.09344 0 0
10:15 am 10:15 Cloudy 63 17 57 14 83 83 NNE 9 15 30.21 1023 10 16.09344 0 0
10:35 am 10:35 Cloudy 63 17 57 14 83 83 NE 8 13 30.21 1023 10 16.09344 0 0
10:55 am 10:55 Cloudy 63 17 59 15 88 88 NNE 7 11 30.21 1023 10 16.09344 0 0
11:15 am 11:15 Cloudy 64 18 59 15 83 83 NE 8 13 30.21 1023 5 8.04672 0 0
11:35 am 11:35 Cloudy 64 18 59 15 83 83 NNE 10 17 30.21 1023 10 16.09344 0 0
11:55 am 11:55 Cloudy 64 18 59 15 83 83 NNE 5 7 30.21 1023 10 16.09344 0 0
12:15 pm 12:15 Cloudy 64 18 59 15 83 83 NNE 7 11 30.21 1023 10 16.09344 0 0
12:35 pm 12:35 Cloudy 66 19 59 15 78 78 NNE 8 13 30.21 1023 10 16.09344 0 0
12:55 pm 12:55 Cloudy 66 19 59 15 78 78 NE 8 13 30.21 1023 10 16.09344 0 0
1:15 pm 13:15 Cloudy 66 19 59 15 78 78 N 8 13 30.18 1022 10 16.09344 0 0
1:35 pm 13:35 Cloudy 66 19 59 15 78 78 NNE 7 11 30.21 1023 10 16.09344 0 0
1:55 pm 13:55 Cloudy 64 18 59 15 83 83 NNE 6 9 30.21 1023 10 16.09344 0 0
2:15 pm 14:15 Cloudy 64 18 59 15 83 83 NNE 6 9 30.21 1023 5 8.04672 0 0
2:35 pm 14:35 Cloudy 64 18 59 15 83 83 NNE 8 13 30.21 1023 10 16.09344 0 0
2:55 pm 14:55 Cloudy 66 19 59 15 78 78 NNE 5 7 30.18 1022 10 16.09344 0 0
3:15 pm 15:15 Cloudy 64 18 59 15 83 83 NNE 7 11 30.18 1022 10 16.09344 0 0
3:35 pm 15:35 Cloudy 64 18 59 15 83 83 NE 9 15 30.18 1022 10 16.09344 0 0
3:55 pm 15:55 Cloudy 66 19 59 15 78 78 NE 9 15 30.18 1022 10 16.09344 0 0
4:15 pm 16:15 Cloudy 66 19 61 16 83 83 NE 9 15 30.18 1022 10 16.09344 0 0
4:35 pm 16:35 Cloudy 66 19 61 16 83 83 ENE 8 13 30.18 1022 10 16.09344 0 0
4:55 pm 16:55 Cloudy 66 19 61 16 83 83 NE 6 9 30.15 1021 7 11.265408 0 0
5:15 pm 17:15 Cloudy 66 19 61 16 83 83 NE 7 11 30.15 1021 7 11.265408 0 0
5:35 pm 17:35 Cloudy 66 19 63 17 88 88 NE 7 11 30.15 1021 7 11.265408 0 0
5:55 pm 17:55 Cloudy 66 19 63 17 88 88 ENE 8 13 30.15 1021 7 11.265408 0 0
6:15 pm 18:15 Cloudy 66 19 63 17 88 88 E 9 15 30.15 1021 7 11.265408 0 0
6:35 pm 18:35 Cloudy 66 19 63 17 88 88 ENE 9 15 30.15 1021 7 11.265408 0 0
6:55 pm 18:55 Cloudy 64 18 63 17 94 94 E 7 11 30.18 1022 7 11.265408 0 0
7:15 pm 19:15 Cloudy 64 18 61 16 88 88 E 5 7 30.18 1022 10 16.09344 0 0
7:35 pm 19:35 Cloudy 64 18 63 17 94 94 ESE 7 11 30.18 1022 10 16.09344 0 0
7:55 pm 19:55 Cloudy 64 18 63 17 94 94 E 7 11 30.18 1022 10 16.09344 0 0
8:15 pm 20:15 Cloudy 63 17 63 17 100 100 E 6 9 30.18 1022 5 8.04672 0 0
8:35 pm 20:35 Cloudy 63 17 63 17 100 100 ENE 5 7 30.18 1022 5 8.04672 0 0
8:55 pm 20:55 Cloudy 63 17 61 16 94 94 E 8 13 30.21 1023 7 11.265408 0 0
9:15 pm 21:15 Cloudy 63 17 61 16 94 94 E 3 6 30.21 1023 10 16.09344 0 0
9:35 pm 21:35 Cloudy 63 17 61 16 94 94 Calm 30.21 1023 10 16.09344 0 0
9:55 pm 21:55 Cloudy 63 17 61 16 94 94 ESE 5 7 30.21 1023 10 16.09344 0 0
10:15 pm 22:15 Cloudy 63 17 61 16 94 94 E 3 6 30.21 1023 10 16.09344 0 0
10:35 pm 22:35 Cloudy 63 17 61 16 94 94 E 7 11 30.21 1023 10 16.09344 0 0
10:55 pm 22:55 Cloudy 63 17 59 15 88 88 E 6 9 30.21 1023 10 16.09344 0 0
11:15 pm 23:15 Cloudy 63 17 59 15 88 88 ESE 6 9 30.21 1023 10 16.09344 0 0
11:35 pm 23:35 Cloudy 63 17 59 15 88 88 E 7 11 30.21 1023 10 16.09344 0 0
11:55 pm 23:55 Cloudy 63 17 59 15 88 88 ESE 7 11 30.21 1023 10 16.09344 0 0

Powered by AerisWeather